FW4070 Weather Reports


time (UTC)temp
C
wind
direction
speed
KPH
gust
KPH
rain 1hr
cm
rain 24hr
cm
rain mn
cm
humidity
%
barometer
mb
20260506003025 8 298 0.0 1.6 0.43 1.78 1.70 93 1008.4
20260506002538 8 298 0.0 1.6 0.41 1.73 1.65 93 1008.6
20260506002038 8 298 0.0 1.6 0.38 1.68 1.60 93 1008.7
20260506001520 8 298 0.0 0.0 0.36 1.63 1.55 93 1008.7
20260506001036 8 298 0.0 0.0 0.36 1.60 1.52 93 1008.5
20260506000546 8 298 0.0 0.0 0.41 1.57 1.50 93 1008.3
20260506000055 8 298 0.0 0.0 0.38 1.52 1.42 93 1008.3
20260505235558 8 298 0.0 0.0 0.36 1.45 1.40 93 1008.3
20260505235500 8 298 0.0 1.6 0.38 1.45 1.40 93 1008.2
20260505235104 9 298 0.0 6.4 0.38 1.42 1.37 93 1008.2
20260505234515 9 298 0.0 6.4 0.38 1.42 1.35 93 1008.1
20260505234025 9 252 1.6 3.2 0.41 1.42 1.35 93 1007.9
20260505233508 9 252 0.0 6.4 0.38 1.37 1.30 92 1008.0
20260505233002 9 252 3.2 6.4 0.38 1.35 1.27 92 1008.2
20260505232512 10 274 0.0 4.8 0.36 1.30 1.24 92 1007.9
20260505232025 10 274 0.0 4.8 0.38 1.30 1.22 92 1007.9
20260505231528 10 273 0.0 6.4 0.36 1.27 1.19 92 1007.9
20260505231021 10 273 1.6 6.4 0.36 1.24 1.17 92 1008.0
20260505230521 10 250 0.0 8.0 0.33 1.17 1.09 92 1008.3
20260505230036 10 249 0.0 17.7 0.33 1.14 1.07 92 1007.8
20260505225538 10 246 4.8 17.7 0.36 1.12 1.04 92 1008.0
20260505225041 10 253 3.2 11.3 0.33 1.07 0.99 92 1008.0
20260505224548 11 244 4.8 11.3 0.30 1.04 0.97 92 1007.9
20260505224049 10 242 1.6 6.4 0.30 1.02 0.94 93 1007.8
20260505223557 10 244 1.6 6.4 0.30 0.99 0.91 92 1007.7
20260505223007 10 246 3.2 8.0 0.33 0.97 0.89 92 1007.6
20260505222550 10 251 3.2 8.0 0.38 0.94 0.89 92 1007.5
20260505222053 10 233 4.8 8.0 0.41 0.91 0.84 92 1007.6
20260505221558 10 257 3.2 9.7 0.46 0.91 0.84 92 1007.8
20260505221006 10 209 1.6 14.5 0.48 0.89 0.81 92 1007.9
20260505220552 11 236 1.6 12.9 0.46 0.84 0.76 92 1008.0
20260505220101 11 211 1.6 16.1 0.48 0.81 0.71 92 1007.9
20260505215546 11 235 4.8 16.1 0.46 0.76 0.69 91 1007.8
20260505215054 11 242 4.8 14.5 0.46 0.71 0.69 91 1007.8
20260505214606 11 230 6.4 14.5 0.48 0.71 0.66 91 1007.6
20260505214004 11 234 4.8 17.7 0.46 0.71 0.64 91 1007.6
20260505213512 11 246 6.4 17.7 0.43 0.66 0.58 91 1007.7
20260505213101 11 248 8.0 19.3 0.43 0.64 0.58 90 1007.7
20260505212506 11 258 9.7 25.7 0.36 0.56 0.48 90 1007.7
20260505212002 12 228 11.3 25.7 0.30 0.51 0.43 90 1007.7
20260505211557 12 225 9.7 22.5 0.25 0.46 0.38 90 1007.4
20260505211056 12 244 9.7 22.5 0.20 0.41 0.33 89 1007.3
20260505210559 12 238 9.7 22.5 0.18 0.38 0.30 89 1007.3
20260505210502 12 211 9.7 22.5 0.15 0.36 0.30 89 1007.3
20260505210035 12 261 8.0 19.3 0.13 0.33 0.25 88 1007.3
20260505205542 12 254 4.8 16.1 0.10 0.30 0.23 88 1007.2
20260505205044 12 253 4.8 12.9 0.10 0.30 0.23 87 1007.0
20260505204532 12 256 3.2 22.5 0.05 0.25 0.18 86 1007.0
20260505204035 12 253 6.4 17.7 0.05 0.25 0.18 86 1007.0
20260505203544 13 249 8.0 17.7 0.03 0.23 0.15 84 1007.0
20260505203051 13 238 8.0 17.7 0.00 0.20 0.13 84 1006.8
20260505202556 13 238 6.4 22.5 0.00 0.20 0.13 82 1006.7
20260505202038 13 281 8.0 22.5 0.00 0.20 0.13 81 1006.7
20260505201543 13 276 8.0 16.1 0.00 0.20 0.13 80 1006.6
20260505201022 13 225 6.4 16.1 0.00 0.20 0.13 80 1006.5
20260505200530 13 284 8.0 17.7 0.00 0.20 0.13 81 1006.4
20260505200042 13 275 4.8 14.5 0.00 0.20 0.13 81 1006.4
20260505195529 13 248 4.8 22.5 0.00 0.20 0.13 80 1006.5
20260505195014 13 157 9.7 22.5 0.00 0.20 0.13 80 1006.6
20260505194555 13 234 8.0 17.7 0.00 0.20 0.13 80 1006.7
20260505194102 14 246 8.0 20.9 0.00 0.20 0.13 80 1006.7
20260505193509 14 231 6.4 24.1 0.00 0.20 0.13 80 1006.8
20260505193041 14 220 11.3 24.1 0.00 0.20 0.13 80 1006.7
20260505192527 14 242 9.7 19.3 0.00 0.20 0.13 81 1006.6
20260505192032 13 244 8.0 17.7 0.00 0.20 0.13 81 1006.4
20260505191512 13 235 6.4 14.5 0.00 0.20 0.13 81 1006.6
20260505191027 13 251 8.0 20.9 0.00 0.20 0.13 81 1006.5
20260505190533 13 269 6.4 24.1 0.00 0.20 0.13 81 1006.5
20260505190044 13 261 11.3 30.6 0.00 0.20 0.13 80 1006.6
20260505185542 14 273 9.7 29.0 0.00 0.20 0.13 80 1006.5
20260505185035 14 240 11.3 29.0 0.00 0.20 0.13 80 1006.4
20260505184559 14 213 8.0 22.5 0.00 0.20 0.13 80 1006.3
20260505184035 14 254 9.7 27.4 0.00 0.20 0.13 79 1006.5
20260505183544 14 257 11.3 27.4 0.00 0.20 0.13 78 1006.6
20260505183045 15 253 11.3 22.5 0.00 0.20 0.13 77 1006.7
20260505182513 15 233 11.3 24.1 0.00 0.20 0.13 76 1006.6
20260505182103 15 259 12.9 24.1 0.00 0.20 0.13 76 1006.6
20260505181515 15 254 11.3 27.4 0.00 0.20 0.13 76 1006.3
20260505181016 15 251 14.5 27.4 0.00 0.20 0.13 74 1006.3
20260505180519 15 262 17.7 32.2 0.00 0.20 0.13 73 1006.3
20260505180034 16 301 17.7 38.6 0.00 0.20 0.13 73 1006.1
20260505175508 16 217 17.7 38.6 0.00 0.20 0.13 73 1006.1
20260505175013 16 256 12.9 32.2 0.00 0.20 0.13 73 1006.1
20260505174528 15 258 12.9 25.7 0.00 0.20 0.13 75 1005.9
20260505174016 15 259 11.3 22.5 0.00 0.20 0.13 76 1005.7
20260505173519 15 247 4.8 20.9 0.00 0.20 0.13 77 1005.6
20260505173003 14 234 8.0 20.9 0.00 0.20 0.13 76 1005.7
20260505172519 14 247 8.0 17.7 0.00 0.20 0.13 77 1005.7
20260505172029 13 224 6.4 16.1 0.00 0.20 0.13 77 1005.8
20260505171520 13 211 9.7 16.1 0.00 0.20 0.13 76 1005.8
20260505171013 13 234 6.4 24.1 0.00 0.20 0.13 76 1005.8
20260505170516 13 254 11.3 24.1 0.00 0.20 0.13 75 1005.7
20260505170016 14 270 8.0 22.5 0.00 0.20 0.13 75 1005.8
20260505165529 14 259 11.3 25.7 0.00 0.20 0.13 74 1005.6
20260505165035 15 281 16.1 25.7 0.00 0.20 0.13 72 1005.6
20260505164541 15 242 11.3 25.7 0.00 0.20 0.13 71 1005.6
20260505164032 16 271 12.9 30.6 0.00 0.20 0.13 67 1005.2
20260505163536 17 263 16.1 30.6 0.00 0.20 0.13 66 1005.0
20260505163039 17 250 11.3 24.1 0.00 0.20 0.13 67 1004.8
20260505162547 17 250 11.3 20.9 0.00 0.20 0.13 68 1004.7
20260505162051 17 233 9.7 20.9 0.00 0.20 0.13 68 1004.5
20260505161559 17 261 6.4 14.5 0.00 0.20 0.13 70 1004.1
20260505161502 17 267 4.8 14.5 0.00 0.20 0.13 71 1004.1
20260505161049 16 252 1.6 17.7 0.00 0.20 0.13 74 1004.3
20260505160556 15 220 6.4 17.7 0.00 0.20 0.13 74 1004.4
20260505153038 18 210 11.3 33.8 0.00 0.20 0.13 63 1004.8
20260505152541 18 248 9.7 32.2 0.00 0.20 0.13 63 1004.8
20260505152030 18 206 9.7 32.2 0.00 0.20 0.13 63 1004.7
20260505151507 18 277 9.7 27.4 0.00 0.20 0.13 63 1004.7
20260505151019 18 245 16.1 43.5 0.00 0.20 0.13 63 1004.6
20260505150527 18 238 16.1 43.5 0.00 0.20 0.13 62 1004.5
20260505140534 18 155 11.3 29.0 0.00 0.20 0.13 60 1003.4
20260505125025 18 183 8.0 32.2 0.00 0.20 0.13 61 1003.0
20260505124536 18 246 6.4 24.1 0.00 0.20 0.13 62 1002.8
20260505124039 18 187 6.4 25.7 0.00 0.20 0.13 62 1002.7
20260505123542 18 210 9.7 30.6 0.00 0.20 0.13 62 1002.8
20260505123106 18 190 11.3 30.6 0.00 0.20 0.13 62 1002.8
20260505122552 18 212 8.0 29.0 0.00 0.20 0.13 62 1002.7
20260505122039 18 212 6.4 29.0 0.00 0.20 0.13 63 1002.7
20260505121524 18 214 8.0 29.0 0.00 0.20 0.13 62 1002.6
20260505121027 18 244 8.0 20.9 0.00 0.20 0.13 63 1002.6
20260505120535 18 243 9.7 22.5 0.00 0.20 0.13 63 1002.6
20260505120048 18 198 6.4 29.0 0.00 0.20 0.13 63 1002.6
20260505115547 18 199 6.4 29.0 0.00 0.20 0.13 63 1002.6
20260505115049 18 289 8.0 30.6 0.00 0.20 0.13 62 1002.5
20260505114604 18 244 6.4 29.0 0.00 0.20 0.13 63 1002.5
20260505114502 18 259 8.0 38.6 0.00 0.20 0.13 63 1002.4
20260505114053 18 217 9.7 38.6 0.00 0.20 0.13 62 1002.3
20260505113505 18 214 11.3 27.4 0.00 0.20 0.13 62 1002.2
20260505113051 18 207 8.0 27.4 0.00 0.20 0.13 63 1002.1
20260505112550 18 189 12.9 27.4 0.00 0.20 0.13 63 1002.0
20260505112055 18 174 9.7 33.8 0.00 0.20 0.13 63 1001.9
20260505111513 18 251 6.4 43.5 0.00 0.20 0.13 63 1002.0
20260505111015 18 274 11.3 43.5 0.00 0.20 0.13 62 1001.8
20260505110522 18 188 11.3 37.0 0.00 0.20 0.13 63 1001.7
20260505102004 18 146 11.3 25.7 0.00 0.20 0.13 63 1001.0
20260505101550 18 210 12.9 27.4 0.00 0.20 0.13 63 1001.2
20260505101010 18 192 8.0 29.0 0.00 0.20 0.13 63 1001.1
20260505100524 18 161 14.5 33.8 0.00 0.20 0.13 63 1001.0
20260505100034 18 167 9.7 29.0 0.00 0.20 0.13 64 1000.9
20260505095539 18 169 9.7 32.2 0.03 0.20 0.13 63 1001.0
20260505095048 18 135 9.7 29.0 0.03 0.20 0.13 63 1000.9
20260505094551 18 179 11.3 41.8 0.03 0.20 0.13 63 1000.9
20260505094053 18 165 9.7 41.8 0.03 0.20 0.13 63 1000.9
20260505093603 18 138 9.7 24.1 0.03 0.20 0.13 63 1000.8
20260505093504 18 162 9.7 27.4 0.03 0.20 0.13 63 1000.8
20260505093006 18 198 8.0 29.0 0.03 0.20 0.13 63 1000.9
20260505092554 18 213 9.7 29.0 0.03 0.20 0.13 63 1001.0
20260505092035 18 103 11.3 33.8 0.03 0.20 0.13 62 1001.0
20260505091548 18 202 14.5 35.4 0.03 0.20 0.13 63 1001.0
20260505091056 18 176 8.0 35.4 0.03 0.20 0.13 63 1001.1
20260505090508 18 178 8.0 38.6 0.03 0.20 0.13 63 1001.0
20260505090110 18 177 16.1 38.6 0.03 0.20 0.13 63 1001.1
20260505085550 18 78 11.3 29.0 0.00 0.18 0.10 64 1000.9
20260505085056 18 163 9.7 27.4 0.00 0.18 0.10 64 1000.9
20260505084505 18 188 9.7 30.6 0.00 0.18 0.10 64 1000.8
20260505084053 18 179 12.9 30.6 0.00 0.18 0.10 64 1000.7
20260505083558 18 180 8.0 35.4 0.00 0.18 0.10 64 1000.8
20260505083010 18 173 8.0 35.4 0.00 0.18 0.10 64 1000.5
20260505082522 18 163 11.3 33.8 0.00 0.18 0.10 64 1000.6
20260505082100 18 174 12.9 32.2 0.00 0.18 0.10 63 1000.7
20260505081510 18 176 11.3 29.0 0.00 0.18 0.10 64 1000.8
20260505081025 18 185 11.3 25.7 0.00 0.18 0.10 64 1000.8
20260505080604 18 208 14.5 29.0 0.00 0.18 0.10 64 1000.8
20260505080503 18 173 12.9 33.8 0.00 0.18 0.10 64 1000.8
20260505080051 18 184 12.9 33.8 0.00 0.18 0.10 65 1000.9
20260505075548 18 173 9.7 32.2 0.00 0.18 0.10 65 1000.8
20260505075058 18 99 11.3 32.2 0.03 0.18 0.10 66 1000.7
20260505074508 17 183 9.7 27.4 0.03 0.18 0.10 66 1000.7
20260505074019 17 144 14.5 29.0 0.03 0.18 0.10 67 1000.8
20260505073520 17 211 16.1 29.0 0.03 0.18 0.10 67 1000.7
20260505073051 17 140 8.0 29.0 0.03 0.18 0.10 68 1000.7
20260505072550 17 157 8.0 29.0 0.03 0.18 0.10 69 1000.6
20260505072100 17 169 12.9 35.4 0.03 0.18 0.10 71 1000.7
20260505071512 16 119 6.4 33.8 0.03 0.18 0.10 73 1000.9
20260505071024 16 140 3.2 14.5 0.03 0.18 0.10 76 1000.9
20260505070530 16 159 4.8 14.5 0.03 0.18 0.10 75 1001.0
20260505070049 17 177 4.8 25.7 0.03 0.18 0.10 74 1001.3
20260505065548 17 191 9.7 37.0 0.03 0.18 0.10 72 1001.4
20260505065029 18 189 6.4 37.0 0.00 0.15 0.08 69 1001.6
20260505064534 18 184 8.0 30.6 0.00 0.15 0.08 63 1001.7
20260505064058 18 204 8.0 30.6 0.00 0.15 0.08 62 1001.6
20260505063508 18 215 9.7 29.0 0.00 0.15 0.08 62 1001.4
20260505063036 18 192 11.3 29.0 0.00 0.15 0.08 63 1001.3
20260505062547 18 196 11.3 32.2 0.00 0.15 0.08 63 1001.6
20260505062053 18 180 9.7 32.2 0.00 0.15 0.08 63 1001.4
20260505061603 18 165 12.9 30.6 0.00 0.15 0.08 64 1001.4
20260505061041 18 171 11.3 35.4 0.03 0.15 0.08 64 1001.4
20260505060530 18 157 11.3 32.2 0.03 0.15 0.08 65 1001.1
20260505060035 17 173 8.0 22.5 0.03 0.15 0.08 66 1001.4
20260505055539 17 158 11.3 32.2 0.03 0.15 0.08 67 1001.4
20260505055050 17 221 9.7 38.6 0.03 0.15 0.08 68 1001.5
20260505054546 17 108 12.9 32.2 0.03 0.15 0.08 70 1001.5
20260505054050 16 91 12.9 37.0 0.03 0.15 0.08 73 1001.5
20260505053557 16 200 4.8 37.0 0.03 0.15 0.08 77 1001.7
20260505053004 15 196 4.8 12.9 0.03 0.15 0.08 82 1001.9
20260505052546 15 204 1.6 9.7 0.03 0.15 0.08 84 1002.0
20260505052030 14 184 0.0 6.4 0.03 0.15 0.08 85 1002.2
20260505051538 14 201 0.0 8.0 0.08 0.15 0.08 86 1002.3
20260505051042 14 211 0.0 11.3 0.05 0.13 0.05 86 1002.4
20260505050545 13 186 3.2 11.3 0.05 0.13 0.05 87 1002.4
20260505050123 13 208 0.0 3.2 0.05 0.13 0.05 86 1002.5
20260505041549 16 267 6.4 24.1 0.00 0.08 0.00 69 1003.9
20260505041046 16 248 8.0 25.7 0.00 0.08 0.00 65 1003.9
20260505040553 17 238 11.3 25.7 0.00 0.08 0.00 64 1003.8
20260505040059 17 257 12.9 29.0 0.00 0.08 0.08 63 1003.6
20260505035553 18 250 14.5 29.0 0.00 0.08 0.08 62 1003.5
20260505035056 18 238 9.7 22.5 0.00 0.08 0.08 61 1003.3
20260505034508 18 213 8.0 30.6 0.00 0.08 0.08 60 1002.8
20260505034015 18 188 3.2 20.9 0.00 0.08 0.08 61 1002.8
20260505033520 18 192 12.9 24.1 0.00 0.08 0.08 60 1002.6
20260505033037 18 188 9.7 27.4 0.00 0.08 0.08 60 1002.4
20260505032545 18 172 12.9 29.0 0.00 0.08 0.08 60 1002.3
20260505032055 18 146 8.0 30.6 0.00 0.08 0.08 61 1002.3
20260505031505 18 155 6.4 30.6 0.00 0.08 0.08 61 1002.3
20260505031014 18 155 9.7 33.8 0.00 0.08 0.08 62 1002.2
20260505030512 18 171 8.0 27.4 0.00 0.08 0.08 63 1002.0
20260505030054 18 148 8.0 27.4 0.00 0.08 0.08 63 1002.1
20260505025601 18 193 8.0 17.7 0.00 0.08 0.08 64 1002.2
20260505025503 18 159 8.0 17.7 0.00 0.08 0.08 64 1002.2
20260505025011 18 155 8.0 27.4 0.00 0.08 0.08 64 1002.3
20260505024520 17 164 9.7 27.4 0.00 0.08 0.08 64 1002.3
20260505024013 17 157 4.8 19.3 0.00 0.08 0.08 66 1002.3
20260505023601 17 199 8.0 19.3 0.00 0.08 0.08 66 1002.3
20260505023504 17 221 6.4 19.3 0.00 0.08 0.08 66 1002.3
20260505023010 17 146 8.0 17.7 0.03 0.08 0.08 66 1002.3
20260505022525 17 190 6.4 17.7 0.03 0.08 0.08 66 1002.4
20260505022022 17 161 8.0 17.7 0.03 0.08 0.08 67 1002.4
20260505021525 17 138 6.4 17.7 0.03 0.08 0.08 68 1002.5
20260505021028 17 217 8.0 14.5 0.03 0.08 0.08 69 1002.4
20260505020537 17 144 6.4 16.1 0.03 0.08 0.08 70 1002.4
20260505020006 16 151 6.4 16.1 0.03 0.08 0.08 72 1002.3
20260505015523 16 169 4.8 14.5 0.03 0.08 0.08 73 1002.5
20260505015020 16 148 6.4 14.5 0.03 0.08 0.08 75 1002.4
20260505014524 16 161 6.4 11.3 0.03 0.08 0.08 76 1002.3
20260505014029 16 136 4.8 8.0 0.05 0.08 0.08 76 1002.4
20260505013536 16 155 3.2 9.7 0.08 0.08 0.08 74 1002.5
20260505013039 17 184 3.2 19.3 0.05 0.05 0.05 72 1002.6
20260505012542 17 153 6.4 22.5 0.05 0.05 0.05 71 1002.6
20260505012046 17 153 6.4 22.5 0.05 0.05 0.05 68 1002.4
20260505011603 17 132 6.4 14.5 0.05 0.05 0.05 66 1002.6
20260505011055 17 181 4.8 16.1 0.05 0.05 0.05 65 1002.6
20260505010506 17 218 3.2 14.5 0.05 0.05 0.05 65 1002.6
20260505010058 17 227 3.2 20.9 0.05 0.05 0.05 64 1002.6
20260505005510 18 167 6.4 24.1 0.05 0.05 0.05 63 1002.7
20260505005050 18 117 3.2 24.1 0.05 0.05 0.05 62 1002.8
20260505004556 19 246 8.0 16.1 0.05 0.05 0.05 59 1003.1
20260505004100 20 240 4.8 14.5 0.03 0.03 0.03 55 1003.0
20260505003516 20 176 4.8 14.5 0.00 0.00 0.00 47 1002.6